Time,TemperatureF,DewpointF,PressureIn,WindDirection,WindDirectionDegrees,WindSpeedMPH,WindSpeedGustMPH,Humidity,HourlyPrecipIn,Conditions,Clouds,dailyrainin,SolarRadiationWatts/m^2,SoftwareType,DateUTC
2013-02-26 00:00:00,73.7,70.3,29.83,SSE,158,5.0,9.0,89,0.00,,---,0.00,0.00,VWS V14.01,2013-02-26 05:00:00,
2013-02-26 00:08:00,73.7,70.0,29.82,SSE,167,5.0,8.0,89,0.00,,,0.00,0,weatherlink.com 1.10,2013-02-26 05:08:00,
2013-02-26 00:23:00,73.5,71.0,29.82,SE,129,7.0,10.0,90,0.00,,,0.00,0,weatherlink.com 1.10,2013-02-26 05:23:00,
2013-02-26 00:30:00,73.4,70.3,29.82,SSE,158,5.0,10.0,90,0.00,,---,0.00,0.00,VWS V14.01,2013-02-26 05:30:00,
2013-02-26 00:38:00,73.3,70.0,29.82,SSE,151,5.0,10.0,90,0.00,,,0.00,0,weatherlink.com 1.10,2013-02-26 05:38:00,
2013-02-26 00:53:00,73.2,71.0,29.82,SSE,155,7.0,9.0,91,0.00,,,0.00,0,weatherlink.com 1.10,2013-02-26 05:53:00,
2013-02-26 01:00:00,73.1,70.3,29.82,SSE,158,5.0,10.0,91,0.00,,---,0.00,0.00,VWS V14.01,2013-02-26 06:00:00,
2013-02-26 01:08:00,73.1,70.0,29.82,SSE,161,3.0,8.0,91,0.00,,,0.00,0,weatherlink.com 1.10,2013-02-26 06:08:00,
2013-02-26 01:23:00,73.1,70.0,29.81,South,184,5.0,8.0,91,0.00,,,0.00,0,weatherlink.com 1.10,2013-02-26 06:23:00,
2013-02-26 01:30:00,73.1,70.6,29.81,SSE,158,4.0,8.0,92,0.00,,---,0.00,0.00,VWS V14.01,2013-02-26 06:30:00,
2013-02-26 01:38:00,73.1,71.0,29.80,SE,136,4.0,7.0,92,0.00,,,0.00,0,weatherlink.com 1.10,2013-02-26 06:38:00,
2013-02-26 01:53:00,73.1,71.0,29.80,SSE,156,4.0,7.0,93,0.00,,,0.00,0,weatherlink.com 1.10,2013-02-26 06:53:00,
2013-02-26 02:00:00,73.2,71.1,29.80,SSE,158,4.0,7.0,93,0.00,,---,0.00,0.00,VWS V14.01,2013-02-26 07:00:00,
2013-02-26 02:08:00,73.1,71.0,29.80,South,175,3.0,7.0,93,0.00,,,0.00,0,weatherlink.com 1.10,2013-02-26 07:08:00,
2013-02-26 02:23:00,73.1,71.0,29.80,South,175,3.0,7.0,92,0.00,,,0.00,0,weatherlink.com 1.10,2013-02-26 07:23:00,
2013-02-26 02:30:00,73.2,70.7,29.80,South,180,4.0,9.0,92,0.00,,---,0.00,0.00,VWS V14.01,2013-02-26 07:30:00,
2013-02-26 02:38:00,73.3,71.0,29.80,SE,141,4.0,7.0,92,0.00,,,0.00,0,weatherlink.com 1.10,2013-02-26 07:38:00,
2013-02-26 02:53:00,73.4,71.0,29.80,SSE,160,2.0,7.0,92,0.00,,,0.00,0,weatherlink.com 1.10,2013-02-26 07:53:00,
2013-02-26 03:00:00,73.4,70.9,29.80,SSE,158,4.0,9.0,92,0.00,,---,0.00,0.00,VWS V14.01,2013-02-26 08:00:00,
2013-02-26 03:08:00,73.4,71.0,29.80,SE,144,2.0,5.0,92,0.00,,,0.00,0,weatherlink.com 1.10,2013-02-26 08:08:00,
2013-02-26 03:23:00,73.2,71.0,29.80,SSE,150,2.0,5.0,92,0.00,,,0.00,0,weatherlink.com 1.10,2013-02-26 08:23:00,
2013-02-26 03:30:00,73.2,70.7,29.80,SSE,158,3.0,6.0,92,0.00,,---,0.00,0.00,VWS V14.01,2013-02-26 08:30:00,
2013-02-26 03:38:00,73.1,71.0,29.80,South,182,3.0,6.0,92,0.00,,,0.00,0,weatherlink.com 1.10,2013-02-26 08:38:00,
2013-02-26 03:53:00,73.2,71.0,29.80,South,171,4.0,5.0,93,0.00,,,0.00,0,weatherlink.com 1.10,2013-02-26 08:53:00,
2013-02-26 04:00:00,73.3,71.2,29.80,South,180,3.0,6.0,93,0.00,,---,0.00,0.00,VWS V14.01,2013-02-26 09:00:00,
2013-02-26 04:08:00,73.4,71.0,29.80,South,183,3.0,5.0,93,0.00,,,0.00,0,weatherlink.com 1.10,2013-02-26 09:08:00,
2013-02-26 04:23:00,73.5,71.0,29.79,SSE,153,5.0,6.0,93,0.00,,,0.00,0,weatherlink.com 1.10,2013-02-26 09:23:00,
2013-02-26 04:30:00,73.5,71.4,29.79,South,180,3.0,7.0,93,0.00,,---,0.00,0.00,VWS V14.01,2013-02-26 09:30:00,
2013-02-26 04:38:00,73.5,71.0,29.79,South,171,3.0,6.0,93,0.00,,,0.00,0,weatherlink.com 1.10,2013-02-26 09:38:00,
2013-02-26 04:54:00,73.5,71.0,29.78,SSE,165,4.0,7.0,93,0.00,,,0.00,0,weatherlink.com 1.10,2013-02-26 09:54:00,
2013-02-26 05:00:00,73.5,71.4,29.78,South,180,4.0,8.0,93,0.00,,---,0.00,0.00,VWS V14.01,2013-02-26 10:00:00,
2013-02-26 05:09:00,73.4,71.0,29.79,South,185,4.0,8.0,93,0.00,,,0.00,0,weatherlink.com 1.10,2013-02-26 10:09:00,
2013-02-26 05:24:00,73.4,71.0,29.80,SE,143,5.0,9.0,93,0.00,,,0.00,0,weatherlink.com 1.10,2013-02-26 10:24:00,
2013-02-26 05:30:00,73.4,71.3,29.80,South,180,4.0,9.0,93,0.00,,---,0.00,0.00,VWS V14.01,2013-02-26 10:30:00,
2013-02-26 05:39:00,73.5,71.0,29.80,South,174,1.0,6.0,93,0.00,,,0.00,0,weatherlink.com 1.10,2013-02-26 10:39:00,
2013-02-26 05:54:00,73.5,71.0,29.81,SSE,166,2.0,8.0,92,0.00,,,0.00,0,weatherlink.com 1.10,2013-02-26 10:54:00,
2013-02-26 06:00:00,73.5,71.0,29.82,South,180,3.0,8.0,92,0.00,,---,0.00,0.00,VWS V14.01,2013-02-26 11:00:00,
2013-02-26 06:09:00,73.6,71.0,29.82,SSE,152,5.0,7.0,91,0.00,,,0.00,0,weatherlink.com 1.10,2013-02-26 11:09:00,
2013-02-26 06:24:00,73.7,71.0,29.82,SSE,158,2.0,6.0,91,0.00,,,0.00,0,weatherlink.com 1.10,2013-02-26 11:24:00,
2013-02-26 06:30:00,73.7,70.9,29.82,South,180,3.0,7.0,91,0.00,,---,0.00,0.00,VWS V14.01,2013-02-26 11:30:00,
2013-02-26 06:39:00,73.7,71.0,29.82,SSE,155,4.0,7.0,91,0.00,,,0.00,0,weatherlink.com 1.10,2013-02-26 11:39:00,
2013-02-26 06:54:00,73.7,71.0,29.82,South,172,6.0,10.0,90,0.00,,,0.00,5,weatherlink.com 1.10,2013-02-26 11:54:00,
2013-02-26 07:00:00,73.8,70.7,29.83,South,180,4.0,10.0,90,0.00,,---,0.00,2.00,VWS V14.01,2013-02-26 12:00:00,
2013-02-26 07:09:00,73.9,71.0,29.83,South,171,4.0,8.0,90,0.00,,,0.00,21,weatherlink.com 1.10,2013-02-26 12:09:00,
2013-02-26 07:24:00,74.0,71.0,29.82,South,180,6.0,9.0,89,0.00,,,0.00,39,weatherlink.com 1.10,2013-02-26 12:24:00,
2013-02-26 07:30:00,74.0,70.6,29.83,SSE,158,5.0,9.0,89,0.00,,---,0.00,27.00,VWS V14.01,2013-02-26 12:30:00,
2013-02-26 07:39:00,74.3,71.0,29.83,South,170,4.0,8.0,89,0.00,,,0.00,79,weatherlink.com 1.10,2013-02-26 12:39:00,
2013-02-26 07:54:00,75.6,72.0,29.83,SSE,159,4.0,7.0,88,0.00,,,0.00,163,weatherlink.com 1.10,2013-02-26 12:54:00,
2013-02-26 08:00:00,75.8,71.7,29.83,SSE,158,4.0,11.0,87,0.00,,---,0.00,113.00,VWS V14.01,2013-02-26 13:00:00,
2013-02-26 08:09:00,75.7,72.0,29.83,SE,137,6.0,9.0,87,0.00,,,0.00,188,weatherlink.com 1.10,2013-02-26 13:09:00,
2013-02-26 08:24:00,77.1,72.0,29.84,South,171,9.0,13.0,84,0.00,,,0.00,274,weatherlink.com 1.10,2013-02-26 13:24:00,
2013-02-26 08:30:00,77.4,72.2,29.83,SSE,158,6.0,15.0,84,0.00,,---,0.00,222.00,VWS V14.01,2013-02-26 13:30:00,
2013-02-26 08:39:00,78.3,72.0,29.84,SSW,200,6.0,11.0,82,0.00,,,0.00,318,weatherlink.com 1.10,2013-02-26 13:39:00,
2013-02-26 08:54:00,78.5,72.0,29.84,South,174,8.0,14.0,81,0.00,,,0.00,388,weatherlink.com 1.10,2013-02-26 13:54:00,
2013-02-26 09:00:00,79.1,72.4,29.84,SSE,158,7.0,14.0,80,0.00,,---,0.00,332.00,VWS V14.01,2013-02-26 14:00:00,
2013-02-26 09:09:00,79.9,73.0,29.84,South,180,7.0,12.0,78,0.00,,,0.00,478,weatherlink.com 1.10,2013-02-26 14:09:00,
2013-02-26 09:24:00,80.7,73.0,29.84,South,180,9.0,16.0,76,0.00,,,0.00,501,weatherlink.com 1.10,2013-02-26 14:24:00,
2013-02-26 09:30:00,80.9,71.8,29.85,SSE,158,8.0,16.0,74,0.00,,---,0.00,479.00,VWS V14.01,2013-02-26 14:30:00,
2013-02-26 09:39:00,81.5,71.0,29.84,SSE,164,9.0,15.0,70,0.00,,,0.00,559,weatherlink.com 1.10,2013-02-26 14:39:00,
2013-02-26 09:54:00,81.8,70.0,29.83,SE,132,12.0,18.0,68,0.00,,,0.00,652,weatherlink.com 1.10,2013-02-26 14:54:00,
2013-02-26 10:00:00,81.8,70.6,29.83,SSE,158,9.0,18.0,69,0.00,,---,0.00,574.00,VWS V14.01,2013-02-26 15:00:00,
2013-02-26 10:09:00,82.3,71.0,29.83,South,178,9.0,17.0,68,0.00,,,0.00,744,weatherlink.com 1.10,2013-02-26 15:09:00,
2013-02-26 10:24:00,83.3,70.0,29.83,South,183,15.0,17.0,64,0.00,,,0.00,664,weatherlink.com 1.10,2013-02-26 15:24:00,
2013-02-26 10:30:00,83.6,70.1,29.83,SSE,158,9.0,17.0,64,0.00,,---,0.00,683.00,VWS V14.01,2013-02-26 15:30:00,
2013-02-26 10:39:00,84.3,69.0,29.83,ENE,67,4.0,12.0,61,0.00,,,0.00,803,weatherlink.com 1.10,2013-02-26 15:39:00,
2013-02-26 10:55:00,84.9,69.0,29.84,SSE,159,11.0,14.0,59,0.00,,,0.00,737,weatherlink.com 1.10,2013-02-26 15:55:00,
2013-02-26 11:00:00,84.4,68.5,29.84,SE,135,8.0,15.0,59,0.00,,---,0.00,722.00,VWS V14.01,2013-02-26 16:00:00,
2013-02-26 11:10:00,84.6,68.0,29.84,SSE,167,8.0,16.0,57,0.00,,,0.00,325,weatherlink.com 1.10,2013-02-26 16:10:00,
2013-02-26 11:25:00,84.8,66.0,29.84,SE,127,7.0,18.0,54,0.00,,,0.00,721,weatherlink.com 1.10,2013-02-26 16:25:00,
2013-02-26 11:30:00,84.8,66.8,29.84,SE,135,9.0,19.0,55,0.00,,---,0.00,654.00,VWS V14.01,2013-02-26 16:30:00,
2013-02-26 11:40:00,84.8,67.0,29.84,SE,134,7.0,17.0,55,0.00,,,0.00,429,weatherlink.com 1.10,2013-02-26 16:40:00,
2013-02-26 11:55:00,84.7,67.0,29.83,SSE,155,10.0,18.0,56,0.00,,,0.00,568,weatherlink.com 1.10,2013-02-26 16:55:00,
2013-02-26 12:00:00,84.8,67.9,29.83,SE,135,10.0,21.0,57,0.00,,---,0.00,581.00,VWS V14.01,2013-02-26 17:00:00,
2013-02-26 12:10:00,84.1,66.0,29.84,ENE,65,8.0,20.0,55,0.00,,,0.00,316,weatherlink.com 1.10,2013-02-26 17:10:00,
2013-02-26 12:30:00,83.6,66.3,29.82,SE,135,9.0,23.0,56,0.00,,---,0.00,372.00,VWS V14.01,2013-02-26 17:30:00,
2013-02-26 12:40:00,84.1,67.0,29.82,SE,126,6.0,14.0,56,0.00,,,0.00,468,weatherlink.com 1.10,2013-02-26 17:40:00,
2013-02-26 12:55:00,84.3,67.0,29.81,NW,316,6.0,18.0,57,0.00,,,0.00,415,weatherlink.com 1.10,2013-02-26 17:55:00,
2013-02-26 13:00:00,84.5,67.6,29.80,SE,135,8.0,18.0,57,0.00,,---,0.00,474.00,VWS V14.01,2013-02-26 18:00:00,
2013-02-26 13:10:00,84.4,68.0,29.78,ENE,59,9.0,21.0,58,0.00,,,0.00,508,weatherlink.com 1.10,2013-02-26 18:10:00,
2013-02-26 13:25:00,84.5,68.0,29.77,ESE,123,5.0,21.0,58,0.00,,,0.00,369,weatherlink.com 1.10,2013-02-26 18:25:00,
2013-02-26 13:30:00,84.5,68.6,29.77,SE,135,9.0,21.0,59,0.00,,---,0.00,460.00,VWS V14.01,2013-02-26 18:30:00,
2013-02-26 13:40:00,85.3,68.0,29.77,ESE,115,11.0,18.0,57,0.00,,,0.00,468,weatherlink.com 1.10,2013-02-26 18:40:00,
2013-02-26 13:55:00,85.6,69.0,29.77,ENE,78,10.0,21.0,57,0.00,,,0.00,267,weatherlink.com 1.10,2013-02-26 18:55:00,
2013-02-26 14:00:00,85.1,68.2,29.77,SE,135,10.0,22.0,57,0.00,,---,0.00,487.00,VWS V14.01,2013-02-26 19:00:00,
2013-02-26 14:10:00,85.0,69.0,29.77,SE,139,8.0,20.0,58,0.00,,,0.00,262,weatherlink.com 1.10,2013-02-26 19:10:00,
2013-02-26 14:25:00,85.2,69.0,29.77,NNW,340,7.0,17.0,58,0.00,,,0.00,206,weatherlink.com 1.10,2013-02-26 19:25:00,
2013-02-26 14:30:00,85.1,68.7,29.77,SE,135,10.0,26.0,58,0.00,,---,0.00,299.00,VWS V14.01,2013-02-26 19:30:00,
2013-02-26 14:40:00,84.4,68.0,29.76,ESE,109,7.0,20.0,58,0.00,,,0.00,223,weatherlink.com 1.10,2013-02-26 19:40:00,
2013-02-26 14:55:00,84.5,68.0,29.77,East,94,9.0,21.0,58,0.00,,,0.00,234,weatherlink.com 1.10,2013-02-26 19:55:00,
2013-02-26 15:00:00,84.6,68.2,29.77,ESE,112,10.0,21.0,58,0.00,,---,0.00,212.00,VWS V14.01,2013-02-26 20:00:00,
2013-02-26 15:10:00,84.3,68.0,29.76,East,96,8.0,16.0,58,0.00,,,0.00,105,weatherlink.com 1.10,2013-02-26 20:10:00,
2013-02-26 15:25:00,84.0,69.0,29.76,East,87,7.0,16.0,60,0.00,,,0.00,148,weatherlink.com 1.10,2013-02-26 20:25:00,
2013-02-26 15:30:00,83.9,68.5,29.76,East,90,8.0,16.0,60,0.00,,---,0.00,124.00,VWS V14.01,2013-02-26 20:30:00,
2013-02-26 15:40:00,83.3,69.0,29.76,ESE,103,7.0,15.0,62,0.00,,,0.00,76,weatherlink.com 1.10,2013-02-26 20:40:00,
2013-02-26 15:55:00,83.8,69.0,29.77,East,93,6.0,14.0,62,0.00,,,0.00,121,weatherlink.com 1.10,2013-02-26 20:55:00,
2013-02-26 16:00:00,83.8,69.4,29.77,East,90,8.0,15.0,62,0.00,,---,0.00,134.00,VWS V14.01,2013-02-26 21:00:00,
2013-02-26 16:10:00,83.7,69.0,29.77,ESE,111,11.0,13.0,62,0.00,,,0.00,142,weatherlink.com 1.10,2013-02-26 21:10:00,
2013-02-26 16:25:00,83.7,69.0,29.78,SE,142,6.0,16.0,61,0.00,,,0.00,74,weatherlink.com 1.10,2013-02-26 21:25:00,
2013-02-26 16:30:00,83.6,68.7,29.78,East,90,7.0,16.0,61,0.00,,---,0.00,104.00,VWS V14.01,2013-02-26 21:30:00,
2013-02-26 16:40:00,82.5,70.0,29.78,ESE,110,5.0,16.0,65,0.00,,,0.00,47,weatherlink.com 1.10,2013-02-26 21:40:00,
2013-02-26 16:55:00,80.3,70.0,29.79,ENE,65,5.0,16.0,71,0.00,,,0.00,33,weatherlink.com 1.10,2013-02-26 21:55:00,
2013-02-26 17:00:00,79.7,69.9,29.78,East,90,7.0,16.0,72,0.00,,---,0.00,31.00,VWS V14.01,2013-02-26 22:00:00,
2013-02-26 17:10:00,79.7,69.0,29.78,West,278,5.0,11.0,70,0.00,,,0.00,44,weatherlink.com 1.10,2013-02-26 22:10:00,
2013-02-26 17:25:00,79.8,69.0,29.79,ENE,68,7.0,12.0,69,0.00,,,0.00,21,weatherlink.com 1.10,2013-02-26 22:25:00,
2013-02-26 17:30:00,79.8,68.3,29.79,ENE,68,5.0,12.0,68,0.00,,---,0.00,35.00,VWS V14.01,2013-02-26 22:30:00,
2013-02-26 17:40:00,79.8,68.0,29.78,SE,134,5.0,13.0,67,0.00,,,0.00,14,weatherlink.com 1.10,2013-02-26 22:40:00,
2013-02-26 17:55:00,79.7,68.0,29.79,SSE,147,3.0,9.0,68,0.00,,,0.00,25,weatherlink.com 1.10,2013-02-26 22:55:00,
2013-02-26 18:00:00,79.7,68.2,29.79,East,90,4.0,13.0,68,0.00,,---,0.00,18.00,VWS V14.01,2013-02-26 23:00:00,
2013-02-26 18:10:00,79.6,68.0,29.79,ESE,123,4.0,7.0,68,0.00,,,0.00,19,weatherlink.com 1.10,2013-02-26 23:10:00,
2013-02-26 18:25:00,79.2,68.0,29.79,ENE,60,4.0,6.0,69,0.00,,,0.00,7,weatherlink.com 1.10,2013-02-26 23:25:00,
2013-02-26 18:30:00,79.1,68.1,29.80,ENE,68,3.0,7.0,69,0.00,,---,0.00,16.00,VWS V14.01,2013-02-26 23:30:00,
2013-02-26 18:40:00,79.0,68.0,29.80,ESE,109,4.0,7.0,69,0.00,,,0.00,0,weatherlink.com 1.10,2013-02-26 23:40:00,
2013-02-26 18:55:00,78.9,68.0,29.81,NW,321,4.0,7.0,69,0.00,,,0.00,0,weatherlink.com 1.10,2013-02-26 23:55:00,
2013-02-26 19:10:00,78.8,68.0,29.81,ESE,123,3.0,8.0,69,0.00,,,0.00,0,weatherlink.com 1.10,2013-02-27 00:10:00,
2013-02-26 19:24:00,79.1,68.1,29.80,ENE,68,3.0,7.0,69,0.00,,---,0.00,16.00,VWS V14.01,2013-02-27 00:24:00,
2013-02-26 19:29:00,78.7,68.1,29.81,ESE,116,5.0,7.0,70,0.00,,---,0.00,0.00,VWS V14.01,2013-02-27 00:29:00,
2013-02-26 19:34:00,78.7,68.1,29.81,NNE,13,4.0,8.0,70,0.00,,---,0.00,0.00,VWS V14.01,2013-02-27 00:34:00,
2013-02-26 19:39:00,78.8,68.6,29.81,ESE,105,4.0,8.0,71,0.00,,---,0.00,0.00,VWS V14.01,2013-02-27 00:39:00,
2013-02-26 19:44:00,78.8,68.6,29.81,East,90,5.0,8.0,71,0.00,,---,0.00,0.00,VWS V14.01,2013-02-27 00:44:00,
2013-02-26 19:57:00,78.4,69.0,29.81,East,84,3.0,11.0,72,0.00,,,0.00,0,weatherlink.com 1.10,2013-02-27 00:57:00,
2013-02-26 20:00:00,78.4,68.6,29.81,East,90,5.0,15.0,72,0.00,,---,0.00,0.00,VWS V14.01,2013-02-27 01:00:00,
2013-02-26 20:12:00,77.6,70.0,29.82,East,90,3.0,9.0,76,0.00,,,0.00,0,weatherlink.com 1.10,2013-02-27 01:12:00,
2013-02-26 20:27:00,77.3,70.0,29.83,NNE,21,3.0,7.0,77,0.00,,,0.00,0,weatherlink.com 1.10,2013-02-27 01:27:00,
2013-02-26 20:30:00,77.2,69.8,29.83,East,90,3.0,10.0,78,0.00,,---,0.00,0.00,VWS V14.01,2013-02-27 01:30:00,
2013-02-26 20:42:00,77.1,70.0,29.83,ENE,74,4.0,12.0,79,0.00,,,0.00,0,weatherlink.com 1.10,2013-02-27 01:42:00,
2013-02-26 20:57:00,77.0,70.0,29.84,ENE,69,3.0,10.0,80,0.00,,,0.00,0,weatherlink.com 1.10,2013-02-27 01:57:00,
2013-02-26 21:00:00,77.0,70.4,29.84,East,90,5.0,12.0,80,0.00,,---,0.00,0.00,VWS V14.01,2013-02-27 02:00:00,
2013-02-26 21:12:00,76.6,70.0,29.85,East,82,5.0,8.0,81,0.00,,,0.00,0,weatherlink.com 1.10,2013-02-27 02:12:00,
2013-02-26 21:27:00,75.9,71.0,29.86,NNE,15,6.0,9.0,84,0.00,,,0.00,0,weatherlink.com 1.10,2013-02-27 02:27:00,
2013-02-26 21:30:00,75.9,71.1,29.85,East,90,4.0,11.0,85,0.00,,---,0.00,0.00,VWS V14.01,2013-02-27 02:30:00,
2013-02-26 21:42:00,75.1,71.0,29.86,East,91,1.0,8.0,87,0.00,,,0.00,0,weatherlink.com 1.10,2013-02-27 02:42:00,
2013-02-26 21:57:00,74.7,71.0,29.86,East,90,5.0,8.0,89,0.00,,,0.00,0,weatherlink.com 1.10,2013-02-27 02:57:00,
2013-02-26 22:00:00,74.7,71.2,29.86,East,90,4.0,8.0,89,0.00,,---,0.00,0.00,VWS V14.01,2013-02-27 03:00:00,
2013-02-26 22:12:00,74.0,71.0,29.86,East,98,2.0,8.0,89,0.00,,,0.00,0,weatherlink.com 1.10,2013-02-27 03:12:00,
2013-02-26 22:27:00,73.0,69.0,29.86,SSW,203,2.0,7.0,86,0.00,,,0.00,0,weatherlink.com 1.10,2013-02-27 03:27:00,
2013-02-26 22:30:00,73.0,68.6,29.86,East,90,3.0,8.0,86,0.00,,---,0.00,0.00,VWS V14.01,2013-02-27 03:30:00,
2013-02-26 22:42:00,72.8,69.0,29.86,NW,314,4.0,8.0,87,0.00,,,0.00,0,weatherlink.com 1.10,2013-02-27 03:42:00,
2013-02-26 22:57:00,72.4,68.0,29.86,ENE,67,2.0,9.0,87,0.00,,,0.00,0,weatherlink.com 1.10,2013-02-27 03:57:00,
2013-02-26 23:00:00,72.4,68.3,29.86,ESE,112,3.0,9.0,87,0.00,,---,0.00,0.00,VWS V14.01,2013-02-27 04:00:00,
2013-02-26 23:12:00,72.0,68.0,29.87,WSW,242,3.0,6.0,88,0.00,,,0.00,0,weatherlink.com 1.10,2013-02-27 04:12:00,
2013-02-26 23:28:00,71.6,68.0,29.87,NW,312,3.0,6.0,87,0.00,,,0.00,0,weatherlink.com 1.10,2013-02-27 04:28:00,
2013-02-26 23:30:00,71.6,67.5,29.86,East,90,3.0,8.0,87,0.00,,---,0.00,0.00,VWS V14.01,2013-02-27 04:30:00,
2013-02-26 23:43:00,71.2,68.0,29.86,East,93,5.0,6.0,88,0.00,,,0.00,0,weatherlink.com 1.10,2013-02-27 04:43:00,
2013-02-26 23:58:00,70.9,67.0,29.87,WSW,242,3.0,7.0,87,0.00,,,0.00,0,weatherlink.com 1.10,2013-02-27 04:58:00,